[[{"header":{"parameterUnit":"m.s-1","parameterCategory":1,"la1":30.2991,"la2":30.254,"lo1":-89.0895,"lo2":-89.0444,"dy":0.0017,"dx":0.0017,"nx":28,"ny":28,"refTime":"2023-09-16T09:00:00:Z","depth":0,"parameterNumber":2,"parameterNumberName":"U-component_of_WINDS"},"data":[0,0,0,0,0,0,0,0,0,0,0,0,0,0,0,0,0,0,0,0,0,0,0,0,0,0,0,0,0,0,0,0,0,0,0,0,0,0,0,0,0,0,0,0,0,0,0,0,0,0,0,0,0,0,0,0,0,0,3.2838,3.2841,0,3.3156,3.316,3.3163,3.3258,3.3256,3.3255,3.3253,3.3579,3.3589,3.3599,0,0,0,0,0,0,0,0,0,0,0,0,0,3.2313,3.2322,3.2837,3.2841,3.2845,3.3155,3.316,3.3164,3.3258,3.3256,3.3254,3.3252,3.3576,3.3588,3.36,0,0,0,0,0,0,0,0,0,0,0,0,0,3.2577,3.2325,3.2836,3.293,3.2941,3.3154,3.316,3.3165,3.3259,3.3256,3.3254,3.3251,3.3572,3.3587,3.3602,3.3746,0,0,3.3649,3.3655,0,0,0,0,0,0,0,0,3.2562,3.2596,3.2912,3.2924,3.2937,3.3165,3.3095,3.336,3.3259,3.3138,3.3253,3.325,3.3443,3.3469,3.3534,3.3761,3.3775,3.365,3.3659,3.3666,3.367,0,0,0,0,0,0,0,3.2544,3.2583,3.2963,3.2916,3.2932,3.2956,3.2991,3.3145,3.33,3.3148,3.3156,3.3192,3.345,3.3519,3.3542,3.378,3.3649,3.3663,3.3672,3.3678,3.4145,3.4148,0,0,0,0,0,0,3.2509,3.2567,3.2953,3.2973,3.2739,3.2968,3.3007,3.3094,3.3299,3.3328,3.3194,3.3196,3.3494,3.3524,3.3554,3.3738,3.3666,3.368,3.3689,3.4142,3.4146,3.4149,0,0,0,0,0,0,3.2498,3.2543,3.294,3.2772,3.2825,3.2979,3.3077,3.3102,3.3171,3.3334,3.3362,3.3236,3.3493,3.3533,3.3698,3.3751,3.3687,3.3701,3.4138,3.4143,3.4147,3.4105,0,0,0,0,0,0,3.2482,3.2538,3.2593,3.2773,3.2833,3.3078,3.308,3.311,3.3197,3.3202,3.3381,3.3408,3.3494,3.3675,3.3713,3.3771,3.3713,3.4134,3.414,3.4146,3.4103,3.4108,3.4113,0,0,0,0,0,3.2463,3.2568,3.2595,3.2641,3.2906,3.308,3.3115,3.3212,3.3201,3.3259,3.3364,3.3402,3.3739,3.3691,3.3735,3.3798,3.4131,3.4138,3.4145,3.41,3.4107,3.4113,0,0,0,0,0,0,3.2389,3.2593,3.2626,3.2791,3.2918,3.3096,3.3171,3.3216,3.3348,3.3347,3.3462,3.3502,3.3659,3.3746,3.3688,3.395,3.3937,3.3953,3.3887,3.3895,3.39,3.3875,3.3725,0,0,0,0,0,3.2392,3.2516,3.2688,3.2818,3.288,3.3015,3.3094,3.3159,3.3295,3.3348,3.3466,3.3596,3.3732,3.3818,3.3952,3.4117,3.4158,3.4182,3.4187,3.419,3.4203,3.4299,3.4312,3.4173,3.4173,3.4172,0,0,3.2399,3.2526,3.2597,3.2807,3.2912,3.304,3.3059,3.3192,3.3288,3.3369,3.3532,3.3623,3.3777,3.3943,3.4023,3.402,3.4251,3.42,3.4201,3.4212,3.4308,3.4321,3.4333,3.4178,3.4177,3.4176,0,0,3.2477,3.2585,3.2706,3.2813,3.2973,3.3063,3.3092,3.3265,3.3329,3.3495,3.3559,3.3676,3.3907,3.4015,3.4099,3.4224,3.4265,3.4264,3.429,3.4383,3.4394,3.4404,3.445,3.4464,3.4277,3.4277,3.4277,0,3.2465,3.2659,3.2763,3.2894,3.2985,3.3066,3.3191,3.3289,3.3485,3.3546,3.3541,3.3835,3.3944,3.4138,3.4169,3.4235,3.4273,3.4243,3.4384,3.4395,3.4406,3.4451,3.4468,3.4275,3.4276,3.4276,3.4276,0,3.2638,3.2772,3.2851,3.3039,3.314,3.3266,3.3391,3.3481,3.3538,3.3628,3.3799,3.3933,3.4097,3.4148,3.4204,3.4352,3.4346,3.4361,3.4349,3.4417,3.4461,3.4479,3.4274,3.4274,3.4275,3.4275,0,0,3.2673,3.2921,3.2948,3.3036,3.3222,3.3328,3.346,3.3621,3.3697,3.383,3.3945,3.4141,3.4158,3.4254,3.4324,3.4405,3.4498,3.4412,3.4417,3.4423,3.4671,3.4658,3.4676,3.4527,3.4531,3.4534,3.4658,0,3.2775,3.3014,3.3114,3.3307,3.3434,3.3515,3.3631,3.3758,3.3848,3.3969,3.4069,3.4206,3.4216,3.4276,3.436,3.4468,3.4549,3.4461,3.4636,3.4641,3.4594,3.4699,3.4684,3.4795,3.4676,3.4679,3.4681,0,3.2924,3.306,3.3267,3.344,3.3497,3.3599,3.3757,3.3872,3.4019,3.4079,3.4189,3.4256,3.44,3.4381,3.4582,3.452,3.4599,3.4663,3.467,3.4689,3.4664,3.472,3.4832,3.4848,3.4709,3.4707,3.4705,0,3.293,3.3166,3.332,3.3393,3.3599,3.367,3.3759,3.3904,3.3996,3.4134,3.4195,3.4348,3.4432,3.455,3.4658,3.4633,3.485,3.4839,3.4905,3.4902,3.4945,3.494,3.507,3.4996,3.4996,3.4995,3.4995,0,3.3033,3.3155,3.3326,3.3421,3.3563,3.3678,3.3815,3.391,3.4039,3.4156,3.4236,3.4343,3.4479,3.4605,3.469,3.4845,3.4882,3.4936,3.4957,3.4928,3.4921,3.498,3.4975,3.5,3.4999,3.4998,3.4997,0,3.3062,3.3181,3.3355,3.3538,3.3587,3.3683,3.384,3.3936,3.4031,3.4178,3.4219,3.4368,3.4521,3.4641,3.4839,3.4897,3.5061,3.5084,3.501,3.5021,3.508,3.5073,3.5252,3.5282,3.5187,3.5188,3.5188,0,3.3118,3.3215,3.3409,3.3493,3.3582,3.3716,3.3811,3.3929,3.4025,3.4203,3.4279,3.4437,3.457,3.4811,3.4938,3.5091,3.5119,3.5171,3.5142,3.5111,3.512,3.5113,3.5124,3.5173,3.5174,3.5174,3.5174,0,3.3207,3.3262,3.3395,3.3551,3.3663,3.3791,3.3921,3.3985,3.4128,3.4232,3.4389,3.4492,3.4697,3.4854,3.5022,3.5115,3.517,3.5183,3.5207,3.5178,3.5132,3.5159,3.502,3.5178,3.5178,3.5177,3.5177,3.5177,3.3252,3.3343,3.3495,3.3642,3.3753,3.3874,3.3974,3.4084,3.4217,3.4392,3.4455,3.4618,3.4767,3.4998,3.5094,3.5224,3.5227,3.526,3.5269,3.5275,3.5273,3.5112,3.5255,3.5255,3.5255,3.5255,3.5255,0,3.3345,3.3447,3.3582,3.3763,3.3879,3.3922,3.4069,3.4164,3.4306,3.4441,3.4571,3.4754,3.4909,3.505,3.5211,3.5288,3.5318,3.5327,3.5322,3.5343,3.526,3.5224,3.5301,3.5301,3.5301,3.5301,3.5301,3.53,3.3406,3.3564,3.3638,3.3852,3.3955,3.4115,3.4196,3.4309,3.4418,3.4618,3.4747,3.4839,3.4978,3.515,3.5295,3.5333,3.5388,3.5391,3.5435,3.5355,3.5348,3.5342,3.5309,3.5402,3.5403,3.5508,3.5509,3.5509]},{"header":{"parameterUnit":"m.s-1","parameterCategory":1,"la1":30.2991,"la2":30.254,"lo1":-89.0895,"lo2":-89.0444,"dy":0.0017,"dx":0.0017,"nx":28,"ny":28,"refTime":"2023-09-16T09:00:00:Z","depth":0,"parameterNumber":3,"parameterNumberName":"V-component_of_WINDS"},"data":[0,0,0,0,0,0,0,0,0,0,0,0,0,0,0,0,0,0,0,0,0,0,0,0,0,0,0,0,0,0,0,0,0,0,0,0,0,0,0,0,0,0,0,0,0,0,0,0,0,0,0,0,0,0,0,0,0,0,1.1855,1.1856,0,1.1887,1.1887,1.1888,1.191,1.191,1.191,1.1911,1.1941,1.1942,1.1942,0,0,0,0,0,0,0,0,0,0,0,0,0,1.181,1.1811,1.1855,1.1856,1.1856,1.1887,1.1887,1.1888,1.191,1.191,1.191,1.1911,1.1941,1.1942,1.1942,0,0,0,0,0,0,0,0,0,0,0,0,0,1.1835,1.1811,1.1855,1.1871,1.1873,1.1887,1.1887,1.1888,1.191,1.191,1.1911,1.1911,1.1941,1.1942,1.1942,1.1943,0,0,1.1945,1.1946,0,0,0,0,0,0,0,0,1.1833,1.1836,1.1868,1.187,1.1872,1.1895,1.1883,1.1906,1.191,1.1896,1.1911,1.1911,1.1925,1.1928,1.1933,1.1944,1.1946,1.1945,1.1946,1.1946,1.1947,0,0,0,0,0,0,0,1.1831,1.1835,1.1868,1.1869,1.1871,1.1875,1.1879,1.1887,1.1908,1.1897,1.1899,1.1902,1.1926,1.1932,1.1934,1.1946,1.1945,1.1946,1.1947,1.1947,1.1957,1.1956,0,0,0,0,0,0,1.1828,1.1833,1.1867,1.1869,1.1853,1.1876,1.188,1.1887,1.1909,1.1912,1.1902,1.1903,1.193,1.1933,1.1935,1.1935,1.1946,1.1947,1.1948,1.1957,1.1957,1.1956,0,0,0,0,0,0,1.1827,1.183,1.1865,1.1851,1.1856,1.1876,1.1884,1.1888,1.1893,1.1912,1.1916,1.1904,1.193,1.1934,1.194,1.1937,1.1948,1.1949,1.1957,1.1957,1.1956,1.1937,0,0,0,0,0,0,1.1825,1.183,1.1831,1.1851,1.1857,1.1871,1.1884,1.1888,1.1895,1.1897,1.1915,1.1918,1.1931,1.1939,1.1941,1.1938,1.1949,1.1958,1.1957,1.1957,1.1938,1.1936,1.1934,0,0,0,0,0,1.1824,1.1825,1.1831,1.1835,1.1859,1.1871,1.1874,1.1889,1.1895,1.1895,1.1907,1.1918,1.1937,1.1939,1.1942,1.1939,1.1958,1.1957,1.1957,1.1939,1.1936,1.1934,0,0,0,0,0,0,1.1804,1.1828,1.1835,1.1843,1.1855,1.1875,1.1877,1.1886,1.1896,1.1898,1.1915,1.1919,1.1923,1.1932,1.1935,1.194,1.1948,1.1948,1.1934,1.1932,1.193,1.1927,1.195,0,0,0,0,0,1.1801,1.1809,1.1829,1.1834,1.184,1.1857,1.1863,1.1873,1.1886,1.1891,1.1903,1.1914,1.1922,1.1927,1.1936,1.1939,1.1942,1.1938,1.1936,1.1935,1.1934,1.1934,1.1932,1.1954,1.1954,1.1954,0,0,1.1794,1.1808,1.1812,1.1831,1.1841,1.1848,1.1861,1.1869,1.1874,1.1892,1.1899,1.1908,1.1921,1.1925,1.1928,1.1933,1.1929,1.1934,1.1932,1.1933,1.1933,1.1931,1.1929,1.1953,1.1953,1.1954,0,0,1.1785,1.1797,1.1802,1.1811,1.1826,1.1837,1.1838,1.1856,1.1863,1.187,1.1883,1.1889,1.1903,1.1911,1.1918,1.1908,1.1918,1.1911,1.19,1.19,1.1898,1.1897,1.1892,1.189,1.191,1.191,1.191,0,1.1775,1.1787,1.1803,1.1809,1.1816,1.1832,1.1835,1.1844,1.1861,1.1864,1.1869,1.1886,1.1896,1.1902,1.1899,1.1904,1.1904,1.1909,1.1897,1.1896,1.1895,1.1891,1.1889,1.1909,1.1909,1.1909,1.191,0,1.1772,1.178,1.1782,1.1798,1.1804,1.1809,1.1824,1.1829,1.1838,1.1848,1.1853,1.1866,1.1876,1.1878,1.1888,1.1884,1.1887,1.1894,1.1904,1.1892,1.1888,1.1886,1.1908,1.1908,1.1908,1.1909,0,0,1.1754,1.1777,1.1777,1.1783,1.18,1.1806,1.181,1.182,1.1823,1.1833,1.1837,1.1847,1.1854,1.186,1.187,1.187,1.186,1.1877,1.1878,1.1873,1.1855,1.1848,1.1846,1.1866,1.1866,1.1865,1.1853,0,1.1747,1.1757,1.177,1.1775,1.1781,1.1795,1.1798,1.1808,1.1816,1.1822,1.1831,1.1838,1.1847,1.1851,1.1851,1.1861,1.1856,1.1862,1.1868,1.1868,1.1863,1.1845,1.1839,1.1827,1.1852,1.1852,1.1852,0,1.1741,1.175,1.1755,1.1769,1.1772,1.1775,1.1784,1.179,1.18,1.1806,1.1812,1.1822,1.1826,1.1834,1.1838,1.1842,1.1844,1.1849,1.1849,1.185,1.1859,1.1844,1.1823,1.1821,1.185,1.185,1.185,0,1.1726,1.1739,1.1744,1.1749,1.1765,1.1766,1.1773,1.1784,1.1788,1.1796,1.1798,1.1806,1.181,1.1815,1.1826,1.1831,1.1828,1.1838,1.1832,1.1832,1.1831,1.1831,1.1809,1.1834,1.1834,1.1834,1.1834,0,1.1717,1.1719,1.1737,1.1739,1.1741,1.1755,1.1756,1.1764,1.1773,1.1776,1.1788,1.1791,1.1805,1.1809,1.1818,1.1818,1.182,1.1824,1.1827,1.1823,1.1822,1.1825,1.1826,1.1833,1.1833,1.1833,1.1833,0,1.1701,1.1713,1.1718,1.1732,1.1735,1.1736,1.1748,1.175,1.1758,1.1762,1.1764,1.1777,1.1781,1.1793,1.18,1.1806,1.1804,1.1809,1.1801,1.1802,1.1795,1.1795,1.1774,1.1772,1.1798,1.1798,1.1798,0,1.1694,1.1696,1.171,1.1713,1.1719,1.1724,1.1728,1.174,1.1744,1.1754,1.1754,1.176,1.1765,1.1771,1.1781,1.1786,1.179,1.1782,1.1791,1.1787,1.1789,1.1788,1.1787,1.178,1.178,1.178,1.178,0,1.1681,1.1686,1.1692,1.1699,1.1703,1.1709,1.1716,1.1717,1.1731,1.1734,1.1739,1.1743,1.175,1.1754,1.1761,1.1766,1.1774,1.1777,1.1775,1.1772,1.1766,1.1768,1.1795,1.1777,1.1777,1.1778,1.1778,1.1778,1.1669,1.167,1.1679,1.1684,1.169,1.1696,1.1698,1.1705,1.171,1.1717,1.1723,1.1727,1.1734,1.1743,1.1748,1.175,1.1754,1.1753,1.1752,1.1751,1.1749,1.1766,1.1751,1.1751,1.1751,1.1751,1.1751,0,1.1655,1.1661,1.1665,1.1674,1.1677,1.1684,1.1691,1.1693,1.1696,1.1703,1.1707,1.1711,1.1714,1.1723,1.1727,1.1727,1.1731,1.1728,1.1728,1.1728,1.1746,1.1746,1.1724,1.1724,1.1724,1.1724,1.1724,1.1724,1.1648,1.165,1.1656,1.166,1.1666,1.1669,1.1672,1.1676,1.1681,1.1685,1.1688,1.1693,1.17,1.1704,1.1707,1.1709,1.171,1.1705,1.1709,1.1725,1.1727,1.173,1.173,1.1706,1.1705,1.1691,1.1691,1.1691]}]]